Weather in Maratea

Italy     39°59′46″N   15°43′17″E
temp.,
°C
wind,
m/s
gust,
m/s
humid.,
%
clouds,
%
prec.,
mm/h
press.,
hPa
HPBL,
m
14 april, wed
wed1423:00+10ssw237489 0.1 1020632
02:00+9sse227870 0.3 1019332
05:00+8e228080 0.2 101999
08:00+10e117299 0.3 1020217
11:00+12sw337196 0.1 1020717
14:00+12wsw327160 0.3 1020728
17:00+11wsw226816 0.1 1019594
20:00+10e22737 0.1 1019217
15 april, thu
thu1523:00+8ene337366 0.0 102078
02:00+8ene3373100 0.0 102081
05:00+7ene437274 0.0 101994
08:00+9ene3267100 0.0 1019164
11:00+11wsw2264100 0.0 1020635
14:00+11wsw226697 0.0 1019502
17:00+10sw1166100 0.0 1018323
20:00+10ene226436 0.0 101863
16 april, fri
fri1623:00+9ene4469100 0.0 1018112
02:00+9ene5569100 0.0 1017142
05:00+8ene6673100 0.0 1015160
08:00+9ene6672100 0.1 1016317
11:00+7ne9984100 3.4 1015383
14:00+6ne9985100 4.5 1013314
17:00+8ene9973100 0.0 1010489
20:00+7ne7881100 0.0 1011418
17 april, sat
sat1723:00+8ene787897 0.0 1010392
02:00+7ene7881100 0.0 1009290
05:00+8ne7781100 0.0 1007408
08:00+9ne6781100 0.1 1007352
11:00+10ne5580100 0.0 1007478
14:00+10ne2378100 0.3 1007422
17:00+10ne2280100 0.8 1008267
20:00+10ne117791 0.8 1009146
18 april, sun
sun1823:00+10s118090 0.0 1010381
02:00+9se128967 0.1 1010291
05:00+9sse239094 0.4 1011233
08:00+9sse238796 1.7 1012344
11:00+11wsw1282100 1.0 1013477
14:00+12wsw237911 2.3 1012468
17:00+12wsw1273100 0.7 1012412
20:00+11ne1172100 0.8 101187